DB0BGL Weather Reports


time (UTC)temp
C
wind
direction
speed
KPH
gust
KPH
rain 1hr
cm
rain 24hr
cm
rain mn
cm
humidity
%
barometer
mb
20260510183145 23 180 0.0 0.0 0.00 0.00 0.00 100
20260510181945 23 180 0.0 0.0 0.00 0.00 0.00 100
20260510180744 23 180 0.0 0.0 0.00 0.00 0.00 100
20260510175543 23 180 0.0 0.0 0.00 0.00 0.00 100
20260510174343 23 180 0.0 0.0 0.00 0.00 0.00 100
20260510173142 23 180 0.0 0.0 0.00 0.00 0.00 100
20260510171941 23 180 0.0 0.0 0.00 0.00 0.00 100
20260510170741 23 180 0.0 0.0 0.00 0.00 0.00 100
20260510165540 22 180 0.0 0.0 0.00 0.00 0.00 100
20260510164339 22 180 0.0 0.0 0.00 0.00 0.00 100
20260510163139 23 180 0.0 0.0 0.00 0.00 0.00 100
20260510161938 23 180 0.0 0.0 0.00 0.00 0.00 100
20260510160738 23 180 0.0 0.0 0.00 0.00 0.00 100
20260510155536 23 180 0.0 0.0 0.00 0.00 0.00 100
20260510153135 23 180 0.0 0.0 0.00 0.00 0.00 100
20260510152008 23 180 0.0 0.0 0.00 0.00 0.00 100
20260510151936 23 180 0.0 0.0 0.00 0.00 0.00
20260510151934 23 180 0.0 0.0 0.00 0.00 0.00 100
20260510150843 23 180 0.0 0.0 0.00 0.00 0.00 100
20260510150734 23 180 0.0 0.0 0.00 0.00 0.00 100
20260510145533 23 180 0.0 0.0 0.00 0.00 0.00 100
20260510144332 24 180 0.0 0.0 0.00 0.00 0.00 100
20260510143132 25 180 0.0 0.0 0.00 0.00 0.00 100
20260510070857 17 111 0.0 4.8 0.00 0.00 0.00 40
20260510065856 18 109 0.0 3.2 0.00 0.00 0.00 39
20260510064855 18 102 0.0 0.0 0.00 0.00 0.00 39
20260510063855 17 95 0.0 3.2 0.00 0.00 0.00 40
20260510062854 17 108 0.0 4.8 0.00 0.00 0.00 40
20260510061854 17 125 0.0 0.0 0.00 0.00 0.00 38